Wisconsin Rapids, WI

1:33 AM CDT on April 29, 2017 (GMT -0500)
Alexander Field South Wood County

Weather History for KISW - March, 2012

Change the Weather History Date:

Thursday, March 8, 2012

  Actual Average Record
Temperature  
Mean Temperature 32 °F -  
Max Temperature 36 °F 37 °F 64 °F (2016)
Min Temperature 26 °F 14 °F -14 °F (1967)
Degree Days  
Heating Degree Days 33    
Moisture  
Dew Point 20 °F    
Average Humidity 63    
Maximum Humidity 82    
Minimum Humidity 42    
Precipitation  
Precipitation 0.00 in - - ()
Sea Level Pressure  
Sea Level Pressure 30.07 in    
Wind  
Wind Speed 14 mph (WNW)    
Max Wind Speed 29 mph    
Max Gust Speed 43 mph    
Visibility 9 miles    
Events Snow    
Averages and records for this station are not official NWS values.
T = Trace of Precipitation, MM = Missing Value Source: NWS Daily Summary

Daily Weather History Graph

Daily Weather History Graph

Search for Another Location

Airport or City:

Trip Planner

Search our weather history database for the weather conditions in past years. The results will help you decide how hot, cold, wet, or windy it might be!

Date:

Astronomy

Mar. 08, 2012 Rise Set
Actual Time 6:23 AM CST 5:57 PM CST
Civil Twilight 5:54 AM CST 6:26 PM CST
Nautical Twilight 5:20 AM CST 6:59 PM CST
Astronomical Twilight 4:47 AM CST 7:33 PM CST
Moon 6:49 PM CST (3/8) 6:04 AM CST (3/8)
Length of Visible Light 12h 31m
Length of Day
11h 33m
Full, 100% of the Moon is Illuminated
Mar 8
Full
Mar 14
Last Quarter
Mar 22
New
Mar 30
First Quarter
Apr 6
Full

Hourly Weather History & Observations

Time (CST) Temp. Windchill Dew Point Humidity Pressure Visibility Wind Dir Wind Speed Gust Speed Precip Events Conditions
12:41 AM 35.6 °F 27.1 °F 30.2 °F 81% 29.83 in 10.0 mi WNW 12.7 mph - N/A   Overcast
12:54 AM 35.1 °F 27.4 °F 30.0 °F 82% 29.86 in 10.0 mi West 10.4 mph 19.6 mph N/A   Overcast
1:54 AM 34.0 °F 27.2 °F 28.9 °F 82% 29.87 in 10.0 mi West 8.1 mph - N/A   Overcast
2:54 AM 33.1 °F 24.9 °F 27.0 °F 78% 29.88 in 10.0 mi WNW 10.4 mph - N/A   Overcast
3:54 AM 32.0 °F 22.1 °F 25.0 °F 75% 29.91 in 10.0 mi WNW 13.8 mph - N/A   Overcast
4:54 AM 30.9 °F 20.7 °F 24.1 °F 76% 29.95 in 10.0 mi WNW 13.8 mph 19.6 mph N/A   Overcast
5:54 AM 30.0 °F 18.7 °F 21.0 °F 69% 30.01 in 10.0 mi WNW 16.1 mph 21.9 mph N/A   Overcast
6:54 AM 28.0 °F 17.5 °F 19.0 °F 69% 30.02 in 10.0 mi WNW 12.7 mph - N/A   Scattered Clouds
7:54 AM 28.9 °F 19.2 °F 19.0 °F 67% 30.06 in 10.0 mi WNW 11.5 mph 25.3 mph N/A   Partly Cloudy
8:54 AM 30.0 °F 18.7 °F 19.0 °F 64% 30.07 in 10.0 mi WNW 16.1 mph 21.9 mph N/A   Clear
9:54 AM 30.9 °F 20.2 °F 18.0 °F 59% 30.09 in 10.0 mi WNW 15.0 mph 20.7 mph N/A   Clear
10:54 AM 33.1 °F 22.6 °F 18.0 °F 54% 30.12 in 10.0 mi WNW 16.1 mph - N/A   Partly Cloudy
11:54 AM 35.1 °F 24.8 °F 16.0 °F 46% 30.14 in 10.0 mi WNW 17.3 mph 25.3 mph N/A   Clear
12:54 PM 35.1 °F 24.8 °F 14.0 °F 42% 30.14 in 10.0 mi West 17.3 mph 31.1 mph N/A   Partly Cloudy
1:54 PM 35.1 °F 25.2 °F 16.0 °F 46% 30.14 in 10.0 mi WNW 16.1 mph 27.6 mph N/A   Partly Cloudy
2:54 PM 36.0 °F 27.5 °F 18.0 °F 48% 30.12 in 10.0 mi West 12.7 mph 25.3 mph N/A   Mostly Cloudy
3:54 PM 35.1 °F 25.9 °F 18.0 °F 50% 30.11 in 10.0 mi WSW 13.8 mph 20.7 mph N/A   Partly Cloudy
4:54 PM 35.1 °F 27.4 °F 18.0 °F 50% 30.10 in 10.0 mi West 10.4 mph 19.6 mph N/A   Mostly Cloudy
5:54 PM 34.0 °F 28.0 °F 18.0 °F 52% 30.11 in 10.0 mi WSW 6.9 mph - N/A   Overcast
6:54 PM 34.0 °F 25.5 °F 18.0 °F 52% 30.11 in 10.0 mi West 11.5 mph 21.9 mph N/A   Mostly Cloudy
7:54 PM 34.0 °F 23.4 °F 21.0 °F 59% 30.12 in 9.0 mi West 17.3 mph 28.8 mph 0.00 in Snow Light Snow
8:54 PM 33.1 °F 23.9 °F 18.0 °F 54% 30.12 in 10.0 mi WNW 12.7 mph 24.2 mph 0.00 in   Overcast
9:31 PM 30.2 °F 15.4 °F 21.2 °F 69% 30.11 in 1.8 mi NW 28.8 mph 42.6 mph 0.00 in Snow Light Snow
9:34 PM 28.4 °F 13.3 °F 23.0 °F 80% 30.11 in 1.0 mi NW 27.6 mph 42.6 mph 0.00 in Snow Light Snow
9:42 PM 28.4 °F 16.2 °F 21.2 °F 74% 30.11 in 2.0 mi WNW 17.3 mph 35.7 mph 0.00 in Snow Light Snow
9:45 PM 28.4 °F 15.1 °F 19.4 °F 69% 30.11 in 5.0 mi WNW 20.7 mph 27.6 mph 0.00 in Snow Light Snow
9:54 PM 28.0 °F 16.1 °F 18.0 °F 66% 30.16 in 10.0 mi WNW 16.1 mph 33.4 mph 0.00 in   Scattered Clouds
10:54 PM 28.0 °F 13.0 °F 12.0 °F 51% 30.20 in 10.0 mi NW 26.5 mph 34.5 mph N/A   Clear
11:54 PM 26.1 °F 14.0 °F 10.0 °F 51% 30.24 in 10.0 mi NW 15.0 mph 25.3 mph N/A   Clear